LiveATC.Net - Listen to live air traffic control over the Internet!


ICAO: CYQG  IATA: YQG   Airport: Windsor Airport
City: Windsor   State/Province: Ontario
Country: Canada   Continent: North America
CYQG METAR Weather: CYQG 082200Z AUTO 04009KT 9SM OVC036 03/M00 A3036 RMK SLP289
CYQG ADS-B Flight Tracking (ADSBExchange)
CYQG Flight Activity (FlightAware)
CYQG Webcam:  (Airport Webcams) 

CYQG Gnd/Twr/App/Misc
Feed Status: UP   Listeners: 1
Listen in your browser - HTML5 player (in browser, HTML5)
Click here to listen with your own player (launches your MP3 player)
Archive Access: CYQG Gnd/Twr/App/Misc
FacilityFrequency
Detroit Approach134.300
Great Lakes ESSO122.950
Jazz Air131.775
London RCO123.375
Windsor Ground121.700
Windsor Tower124.700

NOTICE

Unauthorized use prohibited. See LiveATC.net Terms of Service


Airport/ARTCC Code
Frequency Search
(e.g., 124.400, 128.75)
Site-wide search
 


Browse Feeds
Top 50 Feeds
HF Oceanic Feeds
Coverage Map
Bad Weather Areas

LiveATC FAQ
Offer LiveATC feed
Contact LiveATC.net
Press Inquiries

LiveATC on iPhone
LiveATC on Android

LiveATC Mobile
(Mobile browser)

ATC Audio Archives
Interesting Recordings

LiveATC Forums


Home Page
About LiveATC.net


Terms of Use
Privacy Policy

AIRMETs/SIGMETs

FAA Airport Status
NAS Status
Arrival Demand


Server Software By:
Icecast.org
Liquidsoap